Regional Weather Roundup
Issued by NWS Grand Forks, ND

Home | Current Version | Previous Version | Graphics & Text | Print | Product List | Glossary On
Versions: 1 2 3 4 5 6 7 8 9 10 11 12 13 14 15 16 17 18 19 20 21 22 23 24 25 26 27 28 29 30 31 32 33 34 35 36 37 38 39 40 41 42 43 44 45 46 47 48 49 50
000
ASUS43 KFGF 171831
RWRFGF
PRAIRIE TO PINES  WEATHER ROUNDUP
NATIONAL WEATHER SERVICE EASTERN NORTH DAKOTA/GRAND FORKS ND
1200 PM CST WED DEC 17 2014

 **SATELLITE DATA USED TO AUGMENT SKY COVER AT AUTOMATED STATIONS**
 *****  WEATHER ACROSS EASTERN NORTH DAKOTA  *****

CITY           SKY/WX    TMP DP  RH WIND       PRES   REMARKS
GRAND FORKS    FAIR      12   7  80 N3        30.38F
6HR MIN TEMP:  -1; 6HR MAX TEMP:  12;

GRAND FRKS AFB MOSUNNY   12  11  93 VRB2      30.37F
DEVILS LAKE    FAIR      10   1  67 SE3       30.30S
6HR MIN TEMP:  -2; 6HR MAX TEMP:  10;

FARGO          FAIR     N/A N/A N/A MISG      30.37F HAZE
WAHPETON ARPT  FAIR      14   9  79 N3        30.36F
$$

 ***** WEATHER ACROSS CENTRAL AND WESTERN NORTH DAKOTA  *****

CITY           SKY/WX    TMP DP  RH WIND       PRES   REMARKS
BISMARCK       CLOUDY    15   9  76 S7        30.27F WCI   5
6HR MIN TEMP:  13; 6HR MAX TEMP:  15; 6HR PCP: TRACE;

MINOT          FAIR      15   9  76 S12       30.23F WCI   2
6HR MIN TEMP:   5; 6HR MAX TEMP:  15; 6HR PCP: TRACE;

JAMESTOWN      FAIR      12   7  80 CALM      30.30F
6HR MIN TEMP:  -3; 6HR MAX TEMP:  12;

MINOT AFB      PTSUNNY   16  12  86 SE14      30.23F WCI   1
GARRISON         N/A     15  11  83 S14       30.21F WCI   0
WILLISTON      CLOUDY    19  12  74 SE13G18   30.15F WCI   6
6HR MIN TEMP:  17; 6HR MAX TEMP:  19; 6HR PCP: TRACE;

DICKINSON      LGT SNOW  18  12  77 S14       30.09F WCI   4
6HR MIN TEMP:  15; 6HR MAX TEMP:  18; 6HR PCP: TRACE;

HETTINGER      FLURRIES  16  13  88 SE13      30.11F WCI   2
6HR MIN TEMP:  14; 6HR MAX TEMP:  15; 6HR PCP: TRACE;

$$

 *****  OTHER AIRPORT OBSERVATIONS IN OUR AREA  *****

CITY           SKY/WX    TMP DP  RH WIND       PRES   REMARKS
WALHALLA         N/A     12  10  92 CALM      30.37F
GRAFTON AIRPOR NOT AVBL
VALLEY CITY AR FAIR      14  14 100 NE5       30.31F WCI   6
CANDO          CLOUDY    10   9  92 S3        30.31F
CAVALIER APRT  FAIR      14   7  73 CALM      30.38F
GWINNER        PTCLDY    18  12  79 MISG      30.33F
SHEYENNE NWR     N/A     16   8  71 CALM      29.95S
ROLLA          FAIR      10   9  92 S7        30.28S WCI   0
 ***** THE ABOVE OBSERVATIONS ARE NON NWS ARE NOT QUALITY
       CONTROLLED AND MAY MIS-REPORT RAIN FOR SNOW...
$$

  *****  WEATHER ACROSS NORTHERN MINNESOTA  *****

CITY           SKY/WX    TMP DP  RH WIND       PRES   REMARKS
FLAG ISLAND    FAIR      10   7  85 NW6       30.34S WCI   1
WARROAD        FAIR      10   7  85 E5        30.35S WCI   2
ROSEAU         FAIR      12   9  85 E3        30.34F
HALLOCK        FAIR      12   7  79 CALM      30.38S
THF RVR FALLS  CLOUDY    12  10  92 CALM      30.33F
6HR MIN TEMP:   3; 6HR MAX TEMP:  12;

BAUDETTE       CLOUDY    16   8  71 CALM      30.32F
6HR MIN TEMP:   9; 6HR MAX TEMP:  16;

WASKISH        FAIR      19  12  73 CALM      30.30F
CROOKSTON      FLURRIES  12   9  85 N5        30.38F WCI   4
STEPHEN NDAWN    N/A     10   7  85 VRB3        N/A
GREENBUSH NDAW   N/A     12   9  85 NW3         N/A
$$
  *****  WEATHER ACROSS CENTRAL AND WEST MINNESOTA  *****

CITY           SKY/WX    TMP DP  RH WIND       PRES   REMARKS
FOSSTON        FLURRIES  14   9  79 CALM      30.32S
BEMIDJI        FAIR      17  11  75 CALM      30.28F
PARK RAPIDS    FAIR      17   9  70 CALM      30.28S
6HR MIN TEMP:   2; 6HR MAX TEMP:  17;

ELBOW LAKE     FAIR      10   7  91 NW8       30.33F WCI  -3
6HR MIN TEMP:   0; 6HR MAX TEMP:   9;

WADENA         FAIR      14   9  79 NW5       30.29F WCI   6
DETROIT LAKES  LGT SNOW  10   9  92 NW7       30.32S WCI   0
MOORHEAD       LGT SNOW  12  10  92 N6        30.37F WCI   3
FERGUS FALLS   LGT SNOW   9   5  85 NW7       30.38F WCI  -3
MORRIS MN      FAIR      12   9  85 N9        30.32F WCI   0
STAPLES        LGT SNOW  12   9  85 CALM      30.29F
$$
  *****  WEATHER ELSEWHERE ACROSS MINNESOTA  *****

CITY           SKY/WX    TMP DP  RH WIND       PRES   REMARKS
DULUTH         FAIR      16   8  71 N9        30.22S WCI   4
6HR MIN TEMP:  10; 6HR MAX TEMP:  16; 6HR PCP: TRACE;

INTRNTL FALLS  FAIR      16   6  65 N9        30.31F WCI   4
6HR MIN TEMP:  10; 6HR MAX TEMP:  16;

ELY            FAIR      16  10  79 NE7       30.24F WCI   6
CLOQUET        FLURRIES  18  10  73 N5        30.24F WCI  11
WHEATON        FAIR      10   7  85 N6        30.36F WCI   1
BRAINERD       LGT SNOW  15   9  76 NW5       30.29S WCI   8
6HR MIN TEMP:   7; 6HR MAX TEMP:  15; 6HR PCP: TRACE;

HIBBING        FAIR      18   9  68 N10       30.25F WCI   6
6HR MIN TEMP:  11; 6HR MAX TEMP:  18; 6HR PCP: TRACE;

ALEXANDRIA     FAIR      14   9  80 W7        30.30F WCI   4
6HR MIN TEMP:   4; 6HR MAX TEMP:  14;

SAINT CLOUD    PTSUNNY   17   8  67 W8        30.31S WCI   7
6HR MIN TEMP:   8; 6HR MAX TEMP:  17;

MINNEAPOLIS    FAIR      17   9  70 NW8       30.32F WCI   7
6HR MIN TEMP:   9; 6HR MAX TEMP:  17; 6HR PCP: TRACE;

$$

  *****  WEATHER ACROSS SOUTH DAKOTA  *****

CITY           SKY/WX    TMP DP  RH WIND       PRES   REMARKS
SIOUX FALLS    FAIR      17  11  77 CALM      30.31F
6HR MIN TEMP:  -1; 6HR MAX TEMP:  18;

BROOKINGS      NOT AVBL
WATERTOWN      FAIR      16  10  77 CALM      30.28F
6HR MIN TEMP:   0; 6HR MAX TEMP:  16;

HURON          SUNNY      9   5  84 NE5       30.33F FOG     WCI   1
6HR MIN TEMP:  -2; 6HR MAX TEMP:   9;

SISSETON       NOT AVBL
ABERDEEN       PTSUNNY   16  11  80 VRB3      30.33F
6HR MIN TEMP:   0; 6HR MAX TEMP:  17;

MITCHELL       SUNNY     13  10  88 CALM      30.33F
PIERRE         CLOUDY    17  14  88 SE14      30.22F WCI   3
6HR MIN TEMP:  16; 6HR MAX TEMP:  17;

MOBRIDGE       CLOUDY    18  11  74 SE14      30.23F WCI   4
RAPID CITY     CLOUDY    21  18  88 SE9       30.03F WCI  11
6HR MIN TEMP:  19; 6HR MAX TEMP:  21;

$$

  *****  SOME WEATHER IN NEARBY STATES *****

CITY           SKY/WX    TMP DP  RH WIND       PRES   REMARKS
GLASGOW MT     CLOUDY    19  15  84 E15       30.04F WCI   5
6HR MIN TEMP:  17; 6HR MAX TEMP:  19;

GREAT FALLS MT CLOUDY    32  29  88 SW8       29.89S WCI  25
6HR MIN TEMP:  21; 6HR MAX TEMP:  32;

CHEYENNE WY    CLOUDY    42  24  49 W6        29.94F
6HR MIN TEMP:  29; 6HR MAX TEMP:  42;

SCOTTSBLUFF NE PTSUNNY   22  19  89 E8        30.00F WCI  12
6HR MIN TEMP:  12; 6HR MAX TEMP:  22;

OMAHA NE       PTSUNNY   23  14  68 N5        30.35F WCI  17
6HR MIN TEMP:  17; 6HR MAX TEMP:  23;

DES MOINES IA  PTSUNNY   24  13  62 NW8       30.32F WCI  15
6HR MIN TEMP:  15; 6HR MAX TEMP:  24;

DAVENPORT IA   FAIR      24  15  68 W13       30.29F WCI  12
6HR MIN TEMP:  20; 6HR MAX TEMP:  24;

CHICAGO IL     CLOUDY    26  17  68 W10       30.22F WCI  16
6HR MIN TEMP:  24; 6HR MAX TEMP:  26;

EAU CLAIRE WI  CLOUDY    18  10  71 NW10      30.26F WCI   6
6HR MIN TEMP:  17; 6HR MAX TEMP:  19; 6HR PCP: TRACE;

LA CROSSE WI   FAIR      23  12  62 N10       30.28F WCI  12
6HR MIN TEMP:  20; 6HR MAX TEMP:  23; 6HR PCP: TRACE;

$$

  *****  SOME NATIONAL WEATHER *****

CITY           SKY/WX    TMP DP  RH WIND       PRES   REMARKS
LA GUARDIA NY  PTSUNNY   52  38  58 NW14      29.80F
6HR MIN TEMP:  45; 6HR MAX TEMP:  53;

RALEIGH NC     FAIR      58  37  45 W7        30.06F
6HR MIN TEMP:  39; 6HR MAX TEMP:  58;

ATLANTA GA     PTSUNNY   49  37  63 NW12      30.17F
6HR MIN TEMP:  37; 6HR MAX TEMP:  50;

NEW ORLEANS LA PTSUNNY   58  43  57 N7        30.26F
6HR MIN TEMP:  46; 6HR MAX TEMP:  58;

OKLAHOMA CITY  LGT RAIN  39  31  72 SE14      30.20F
6HR MIN TEMP:  37; 6HR MAX TEMP:  39; 6HR PCP:  0.01;

ALBUQUERQUE NM CLOUDY    39  35  86 CALM      30.04S
6HR MIN TEMP:  32; 6HR MAX TEMP:  39; 6HR PCP:  0.11;

SALT LAKE CITY PTSUNNY   37  31  78 CALM      30.01S
6HR MIN TEMP:  30; 6HR MAX TEMP:  37;

LOS ANGELES CA PTSUNNY   58  51  78 SE3       30.07R


USA.gov is the U.S. government's official web portal to all federal, state and local government web resources and services.